Weather History for Hurlburt Field, FL

Change the Weather History Date:

Wednesday, September 5, 2012

  Actual Average Record
Temperature  
Mean Temperature 78 °F -  
Max Temperature 82 °F 85 °F 93 °F (2000)
Min Temperature 74 °F 70 °F 64 °F (2010)
Cooling Degree Days 13    
Growing Degree Days 28 (Base 50)    
Moisture  
Dew Point 75 °F    
Average Humidity 91    
Maximum Humidity 100    
Minimum Humidity 79    
Precipitation  
Precipitation 0.66 in - - ()
Sea Level Pressure  
Sea Level Pressure 29.86 in    
Wind  
Wind Speed 7 mph (South)    
Max Wind Speed 21 mph    
Max Gust Speed 29 mph    
Visibility 9 miles    
Events Rain , Thunderstorm    
Averages and records for this station are not official NWS values.
T = Trace of Precipitation, MM = Missing Value Source: NWS Daily Summary

Daily Weather History Graph

Daily Weather History Graph

Search for Another Location

Airport:

Trip Planner

Search our weather history database for the weather conditions in past years. The results will help you decide how hot, cold, wet, or windy it might be!

Date:

Astronomy

Sep. 05, 2012 Rise Set
Actual Time 6:25 AM CDT 7:04 PM CDT
Civil Twilight 6:01 AM CDT 7:28 PM CDT
Nautical Twilight 5:33 AM CDT 7:56 PM CDT
Astronomical Twilight 5:03 AM CDT 8:25 PM CDT
Moon 10:00 PM CDT (9/5) 11:03 AM CDT (9/5)
Length of Visible Light 13h 26m
Length of Day
12h 38m
Waning Gibbous, 76% of the Moon is Illuminated
Sep 5
Waning Gibbous
Sep 8
Last Quarter
Sep 15
New
Sep 22
First Quarter
Sep 29
Full

Hourly Weather History & Observations

Time (CDT) Temp. Heat Index Dew Point Humidity Pressure Visibility Wind Dir Wind Speed Gust Speed Precip Events Conditions
12:01 AM 78.8 °F - 77.0 °F 94% 29.87 in 4.0 mi SW 5.8 mph - N/A Rain , Thunderstorm Light Thunderstorms and Rain
12:15 AM 78.8 °F - 75.2 °F 89% 29.86 in 2.5 mi SW 10.4 mph - N/A Rain , Thunderstorm Thunderstorms and Rain
12:17 AM 78.8 °F - 75.2 °F 89% 29.86 in 2.0 mi SSW 10.4 mph - N/A Rain , Thunderstorm Heavy Thunderstorms and Rain
12:21 AM 77.0 °F - 75.2 °F 94% 29.86 in 2.0 mi SW 8.1 mph - N/A Rain , Thunderstorm Heavy Thunderstorms and Rain
12:24 AM 77.0 °F - 75.2 °F 94% 29.86 in 3.0 mi WSW 9.2 mph - N/A Rain , Thunderstorm Heavy Thunderstorms and Rain
12:28 AM 77.0 °F - 75.2 °F 94% 29.84 in 5.0 mi WSW 6.9 mph - N/A Rain , Thunderstorm Heavy Thunderstorms and Rain
12:29 AM 77.0 °F - 73.4 °F 89% 29.86 in 5.0 mi WSW 6.9 mph - N/A Rain Heavy Rain
12:36 AM 77.0 °F - 73.4 °F 89% 29.84 in 6.0 mi SW 4.6 mph - N/A Rain , Thunderstorm Thunderstorms and Rain
12:39 AM 77.0 °F - 75.2 °F 94% 29.84 in 5.0 mi SW 3.5 mph - N/A Rain Rain
12:55 AM 77.4 °F - 74.8 °F 92% 29.85 in 5.0 mi Calm Calm - 0.31 in Rain Rain
1:55 AM 77.0 °F - 75.2 °F 94% 29.84 in 8.0 mi WSW 5.8 mph - 0.19 in Rain Light Rain
2:07 AM 77.0 °F - 75.2 °F 94% 29.85 in 9.0 mi WSW 5.8 mph - N/A Rain Light Rain
2:16 AM 77.0 °F - 75.2 °F 94% 29.85 in 8.0 mi West 5.8 mph - N/A Rain Rain
2:25 AM 77.0 °F - 75.2 °F 94% 29.86 in 10.0 mi West 3.5 mph - N/A Rain Light Rain
2:55 AM 76.5 °F - 75.4 °F 96% 29.86 in 9.0 mi West 3.5 mph - 0.08 in Rain Light Rain
3:17 AM 77.0 °F - 75.2 °F 94% 29.84 in 10.0 mi Calm Calm - N/A Rain Light Rain
3:30 AM 75.2 °F - 75.2 °F 100% 29.84 in 10.0 mi NNW 4.6 mph - N/A   Overcast
3:38 AM 75.2 °F - 75.2 °F 100% 29.84 in 10.0 mi NNW 4.6 mph - N/A   Light Drizzle
3:55 AM 75.2 °F - 74.3 °F 97% 29.84 in 10.0 mi North 3.5 mph - 0.01 in Rain Light Rain
4:08 AM 75.2 °F - 73.4 °F 94% 29.84 in 10.0 mi Calm Calm - N/A Rain Light Rain
4:20 AM 75.2 °F - 73.4 °F 94% 29.84 in 10.0 mi West 3.5 mph - N/A   Mostly Cloudy
4:55 AM 74.8 °F - 73.9 °F 97% 29.85 in 10.0 mi NW 4.6 mph - 0.01 in   Overcast
5:55 AM 74.8 °F - 73.9 °F 97% 29.85 in 10.0 mi WNW 3.5 mph - N/A   Overcast
6:55 AM 74.8 °F - 73.8 °F 96% 29.86 in 10.0 mi NNW 8.1 mph - N/A   Overcast
7:17 AM 75.2 °F - 73.4 °F 94% 29.87 in 9.0 mi Calm Calm - N/A   Overcast
7:20 AM 75.2 °F - 73.4 °F 94% 29.87 in 9.0 mi Calm Calm - N/A   Overcast
7:22 AM 75.2 °F - 73.4 °F 94% 29.87 in 9.0 mi Calm Calm - N/A   Overcast
7:38 AM 75.2 °F - 73.4 °F 94% 29.88 in 10.0 mi Calm Calm - N/A   Light Drizzle
7:45 AM 75.2 °F - 73.4 °F 94% 29.87 in 10.0 mi NNE 3.5 mph - N/A   Overcast
7:55 AM 75.6 °F - 74.3 °F 96% 29.87 in 10.0 mi Variable 3.5 mph - 0.00 in   Overcast
8:17 AM 75.2 °F - 73.4 °F 94% 29.88 in 10.0 mi Calm Calm - N/A   Light Drizzle
8:28 AM 75.2 °F - 73.4 °F 94% 29.88 in 10.0 mi Calm Calm - N/A   Overcast
8:44 AM 75.2 °F - 73.4 °F 94% 29.88 in 10.0 mi Calm Calm - N/A   Light Drizzle
8:55 AM 76.1 °F - 74.3 °F 94% 29.89 in 10.0 mi Calm Calm - 0.00 in   Light Drizzle
9:04 AM 77.0 °F - 75.2 °F 94% 29.89 in 10.0 mi SE 3.5 mph - N/A   Light Drizzle
9:07 AM 77.0 °F - 75.2 °F 94% 29.89 in 10.0 mi SE 4.6 mph - N/A   Overcast
9:14 AM 77.0 °F - 75.2 °F 94% 29.89 in 10.0 mi SE 3.5 mph - N/A   Overcast
9:36 AM 77.0 °F - 75.2 °F 94% 29.89 in 9.0 mi SE 3.5 mph - N/A   Light Drizzle
9:43 AM 77.0 °F - 75.2 °F 94% 29.89 in 8.0 mi SE 4.6 mph - N/A   Light Drizzle
9:53 AM 77.0 °F - 75.2 °F 94% 29.89 in 9.0 mi SE 4.6 mph - N/A   Overcast
9:54 AM 77.0 °F - 75.2 °F 94% 29.89 in 8.0 mi SE 4.6 mph - N/A   Overcast
9:55 AM 76.6 °F - 75.2 °F 95% 29.89 in 8.0 mi SE 4.6 mph - 0.00 in   Light Drizzle
10:05 AM 77.0 °F - 75.2 °F 94% 29.88 in 5.0 mi SE 5.8 mph - N/A Rain Light Rain
10:13 AM 77.0 °F - 75.2 °F 94% 29.88 in 8.0 mi SSE 6.9 mph - N/A   Light Drizzle
10:17 AM 77.0 °F - 75.2 °F 94% 29.88 in 10.0 mi SSE 6.9 mph - N/A   Overcast
10:22 AM 77.0 °F - 75.2 °F 94% 29.88 in 10.0 mi SSE 5.8 mph - N/A   Overcast
10:25 AM 77.0 °F - 75.2 °F 94% 29.88 in 10.0 mi SSE 5.8 mph - N/A   Overcast
10:28 AM 77.0 °F - 75.2 °F 94% 29.88 in 10.0 mi SSE 6.9 mph - N/A   Overcast
10:38 AM 77.0 °F - 75.2 °F 94% 29.88 in 10.0 mi SSE 9.2 mph - N/A Rain Light Rain
10:43 AM 77.0 °F - 77.0 °F 100% 29.88 in 10.0 mi SSE 6.9 mph - N/A Rain Light Rain
10:47 AM 78.8 °F - 77.0 °F 94% 29.88 in 10.0 mi SE 5.8 mph - N/A Rain Light Rain
10:48 AM 78.8 °F - 77.0 °F 94% 29.88 in 10.0 mi SE 5.8 mph - N/A   Mostly Cloudy
10:52 AM 78.8 °F - 77.0 °F 94% 29.88 in 10.0 mi SSE 6.9 mph - N/A   Mostly Cloudy
10:55 AM 78.3 °F - 76.5 °F 94% 29.88 in 10.0 mi ESE 5.8 mph - 0.00 in   Mostly Cloudy
10:59 AM 78.8 °F - 75.2 °F 89% 29.88 in 10.0 mi Variable 4.6 mph - N/A   Mostly Cloudy
11:06 AM 78.8 °F - 77.0 °F 94% 29.88 in 9.0 mi South 9.2 mph - N/A Rain Light Rain
11:13 AM 78.8 °F - 75.2 °F 89% 29.88 in 10.0 mi SSE 16.1 mph 23.0 mph N/A Rain Light Rain
11:26 AM 77.0 °F - 75.2 °F 94% 29.88 in 3.0 mi South 20.7 mph 27.6 mph N/A Rain Light Rain
11:35 AM 77.0 °F - 73.4 °F 89% 29.87 in 8.0 mi South 11.5 mph 27.6 mph N/A   Overcast
11:46 AM 78.8 °F - 77.0 °F 94% 29.86 in 10.0 mi South 13.8 mph - N/A   Mostly Cloudy
11:55 AM 79.5 °F - 76.8 °F 91% 29.86 in 10.0 mi SSE 12.7 mph - 0.06 in   Mostly Cloudy
12:45 PM 80.6 °F 86.2 °F 75.2 °F 84% 29.86 in 10.0 mi SSW 13.8 mph 28.8 mph N/A   Overcast
12:55 PM 80.6 °F 85.4 °F 73.6 °F 79% 29.86 in 10.0 mi SSW 10.4 mph 18.4 mph N/A   Mostly Cloudy
1:01 PM 80.6 °F 85.4 °F 73.4 °F 79% 29.86 in 10.0 mi SSW 15.0 mph 21.9 mph N/A   Mostly Cloudy
1:55 PM 82.2 °F 89.1 °F 75.0 °F 79% 29.84 in 10.0 mi SSE 15.0 mph - N/A   Partly Cloudy
2:28 PM 82.4 °F 89.5 °F 75.2 °F 79% 29.83 in 10.0 mi SE 8.1 mph - N/A   Light Drizzle
2:39 PM 82.4 °F 90.9 °F 77.0 °F 84% 29.83 in 10.0 mi ESE 10.4 mph - N/A   Scattered Clouds
2:55 PM 82.0 °F 89.7 °F 76.3 °F 83% 29.82 in 10.0 mi SE 10.4 mph - 0.00 in   Scattered Clouds
2:59 PM 82.4 °F 90.9 °F 77.0 °F 84% 29.83 in 10.0 mi SE 10.4 mph - N/A   Mostly Cloudy
3:43 PM 82.4 °F 89.5 °F 75.2 °F 79% 29.82 in 10.0 mi South 13.8 mph - N/A   Mostly Cloudy
3:55 PM 81.5 °F 88.3 °F 75.9 °F 83% 29.82 in 10.0 mi South 13.8 mph - N/A   Partly Cloudy
4:32 PM 82.4 °F 89.5 °F 75.2 °F 79% 29.84 in 10.0 mi South 11.5 mph 18.4 mph N/A   Mostly Cloudy
4:47 PM 80.6 °F 86.2 °F 75.2 °F 84% 29.83 in 10.0 mi South 13.8 mph 19.6 mph N/A   Mostly Cloudy
4:55 PM 80.6 °F 86.2 °F 75.2 °F 84% 29.84 in 10.0 mi South 12.7 mph - N/A   Mostly Cloudy
5:55 PM 80.8 °F 86.9 °F 75.7 °F 85% 29.84 in 10.0 mi South 11.5 mph - N/A   Partly Cloudy
6:26 PM 80.6 °F 86.2 °F 75.2 °F 84% 29.84 in 10.0 mi South 11.5 mph - N/A   Mostly Cloudy
6:29 PM 80.6 °F 86.2 °F 75.2 °F 84% 29.84 in 10.0 mi South 10.4 mph - N/A   Mostly Cloudy
6:55 PM 80.6 °F 86.2 °F 75.2 °F 84% 29.84 in 10.0 mi South 10.4 mph - N/A   Mostly Cloudy
7:12 PM 80.6 °F 86.2 °F 75.2 °F 84% 29.82 in 6.0 mi South 13.8 mph - N/A Rain Light Rain
7:57 PM 78.8 °F - 75.2 °F 89% 29.85 in 10.0 mi South 15.0 mph - N/A   Mostly Cloudy
8:55 PM 79.5 °F - 75.2 °F 87% 29.87 in 10.0 mi South 12.7 mph - N/A   Overcast
9:30 PM 78.8 °F - 73.4 °F 83% 29.87 in 10.0 mi SSE 12.7 mph - N/A   Scattered Clouds
9:55 PM 79.2 °F - 73.9 °F 84% 29.87 in 10.0 mi SSE 12.7 mph - N/A   Clear
10:55 PM 79.2 °F - 74.1 °F 84% 29.88 in 10.0 mi SSE 11.5 mph - N/A   Clear
11:55 PM 79.7 °F - 74.1 °F 83% 29.90 in 10.0 mi SSE 9.2 mph - N/A   Clear